Location: The Saddle
(36.8333°N, 80.3417°W)
Time: 12:13:24
(UTC-04:00)

A-11 Canister half - Pass Details

Date: 09 December 2023
Orbit: 1515 x 1684 km, 47.2° (Epoch: 02 October)

Event Time Altitude Azimuth Distance (km) Brightness Sun altitude
Rises 05:28:38 0° 302° (WNW) 4,850 - -22.1°
Reaches altitude 10° 05:31:44 10° 302° (WNW) 3,882 - -21.5°
Exits shadow 05:35:33 28° 301° (WNW) 2,745 9.8 -20.7°
Maximum altitude 05:41:44 83° 217° (SW) 1,684 9.1 -19.5°
Drops below altitude 10° 05:51:55 10° 130° (SE) 3,940 12.2 -17.6°
Sets 05:55:05 0° 130° (SE) 4,925 12.9 -17.0°
